Location: Allos
(44.2333°N, 6.6333°E)
Time: 05:53:05
(UTC+00:00)

Meteor 1-27 Rocket - Pass Details

Date: 01 December 2020
Orbit: 830 x 909 km, 81.3° (Epoch: 27 January)

Event Time Altitude Azimuth Distance (km) Brightness Sun altitude
Rises 18:13:13 0° 179° (S) 3,360 6.9 -23.9°
Reaches altitude 10° 18:15:37 10° 177° (S) 2,433 6.1 -24.4°
Enters shadow 18:20:32 61° 126° (SE) 946 3.6 -25.2°
